Weather Roundup
Issued by NWS Chicago, IL

Home | Current Version | Previous Version | Text Only | Print | Product List | Glossary On
Versions: 1 2 3 4 5 6 7 8 9 10 11 12 13 14 15 16 17 18 19 20 21 22 23 24 25 26 27 28 29 30 31 32 33 34 35 36 37 38 39 40 41 42 43 44 45 46 47 48 49 50
000
NZUS59 KLOT 220708
HRRLOT

CHICAGO AREA WEATHER ROUNDUP
NATIONAL WEATHER SERVICE CHICAGO/ROMEOVILLE IL
100 AM CST THU FEB 22 2018

NOTE: "FAIR" INDICATES FEW OR NO CLOUDS BELOW 12,000 FEET WITH NO
SIGNIFICANT WEATHER AND/OR OBSTRUCTIONS TO VISIBILITY.

* THESE STATIONS ARE NOT UNDER NWS QUALITY CONTROL. THEY ALSO MAY NOT
  REPORT WEATHER SUCH AS PRECIPITATION OR FOG.

ILZ005-006-012>014-019>023-220800-
NORTHEAST ILLINOIS

CITY           SKY/WX    TMP DP  RH WIND       PRES   REMARKS
OHARE          CLOUDY    30  22  72 NE13      30.56F WCI  20
MIDWAY         CLOUDY    32  25  75 NE15      30.56F WCI  22
AURORA           N/A     28  21  75 NE13      30.55F WCI  17
LANSING*         N/A     31  28  89 NE12G18   30.55F WCI  22
JOLIET*          N/A     31  25  78 NE10      30.55S WCI  22
WAUKEGAN         N/A     29  22  75 NE9       30.59S WCI  20
DUPAGE AIRPORT   N/A     28  22  78 NE13      30.55F WCI  17
WHEELING         N/A     30  23  75 NE12      30.60S WCI  20
KANKAKEE*      CLOUDY    31  27  85 NE14      30.52F WCI  21
MORRIS*          N/A     30  24  80 NE7       30.54S WCI  23
LEWIS AIRPORT*   N/A     30  25  81 NE16      30.54S WCI  18
NORTHERLY ISL    N/A     31  25  78 NE16        N/A  WCI  20
$$

WIZ051-052-058>065-066-070>072-220800-
SOUTHEAST WISCONSIN

CITY           SKY/WX    TMP DP  RH WIND       PRES   REMARKS
MILWAUKEE      CLOUDY    28  19  69 NE8       30.62S WCI  20
KENOSHA*         N/A     28  20  71 NE8       30.60F WCI  20
RACINE*          N/A     28  20  71 NE8       30.63S WCI  20
BURLINGTON       N/A     24  16  70 NE6       30.60F WCI  17
WAUKESHA         N/A     21  12  68 NE6       30.62F WCI  14
WEST BEND        N/A     23  14  68 N3        30.62F
$$

INZ001>003-010>013-019-020-220800-
NORTHWEST INDIANA

CITY           SKY/WX    TMP DP  RH WIND       PRES   REMARKS
GARY*            N/A     32  28  85 NE12      30.57S WCI  23
MICHIGAN CITY* NOT AVBL
RENSSELAER*    NOT AVBL
VALPARAISO     MOCLDY    32  27  81 NE9       30.54F WCI  24
$$

LMZ740>746-220800-
SOUTHERN LAKE MICHIGAN

STATION/POSITION TIME  SKY/WX   TEMP WIND        PRES    VSBY
                                AIR  DIR/SP/G
                 (UTC)          (F)  (DEG/KT/KT) (MB)    (MI)
HARRISON CRIB    0640            32   40/ 18/ 20   N/A
BURNHAM HARBOR   0700            31   30/ 14/ 18   N/A
CALUMET HARBOR   0648            31   30/ 14/ 19 1034.1F
BURNS HARBOR     0640            31   50/ 20/ 23 1034.5F
MICHIGAN CITY    0640            30   30/ 21/ 23   N/A
$$

ABBREVIATIONS USED IN REMARKS
   TC - TEMPERATURE IN CELSIUS
  WCI - WIND CHILL INDEX
   HX - HEAT INDEX
  VSB - VISIBILITY
$$




USA.gov is the U.S. government's official web portal to all federal, state and local government web resources and services.